Location: Saint Louis
(38.6272°N, 90.1978°W)
Time: 11:32:37
(UTC-05:00)

HST - Visible Passes

Search period start: 20 August 2014 00:00
Search period end: 30 August 2014 00:00
Orbit: 548 x 551 km, 28.5° (Epoch: 19 August)

Date Brightness Start Highest point End Pass type
(mag) Time Alt. Az. Time Alt. Az. Time Alt. Az.
20 Aug 3.1 05:08:49 10° S 05:10:31 12° SSE 05:12:12 10° SE visible
21 Aug 2.9 05:02:02 12° S 05:03:28 14° SSE 05:05:45 10° SE visible
22 Aug 2.7 04:55:31 15° S 04:56:26 16° S 04:59:05 10° SE visible
23 Aug 2.6 04:49:00 18° S 04:49:25 18° S 04:52:18 10° SE visible
24 Aug 2.5 04:42:30 19° S 04:42:30 19° S 04:45:25 10° SE visible
25 Aug 2.6 04:36:03 19° SSE 04:36:03 19° SSE 04:38:29 10° SE visible
26 Aug 2.7 04:29:38 18° SSE 04:29:38 18° SSE 04:31:29 10° SE visible
27 Aug 3.0 04:23:18 15° SSE 04:23:18 15° SSE 04:24:26 10° SE visible
28 Aug 3.4 04:17:03 11° SE 04:17:03 11° SE 04:17:18 10° SE visible
28 Aug 3.0 05:54:19 10° SSW 05:55:03 10° SSW 05:55:47 10° S visible
